North Platte, NE

9:14 AM CST on December 07, 2016 (GMT -0600)
North Platte Regional-Bird

Weather History for KLBF - February, 2013

Change the Weather History Date:

Monday, February 25, 2013

  Actual Average Record
Temperature  
Mean Temperature 25 °F 32 °F  
Max Temperature 38 °F 46 °F 76 °F (1995)
Min Temperature 11 °F 18 °F -12 °F (1960)
Degree Days  
Heating Degree Days 40 33  
Month to date heating degree days 889 910  
Since 1 July heating degree days 4844 4930  
Cooling Degree Days 0 0  
Month to date cooling degree days 0 0  
Year to date cooling degree days 0 0  
Moisture  
Dew Point 22 °F    
Average Humidity 76    
Maximum Humidity 92    
Minimum Humidity 59    
Precipitation  
Precipitation T in 0.03 in 0.23 in (2000)
Month to date precipitation 1.04 0.43  
Year to date precipitation 1.28 0.77  
Snow  
Snow T in 0.20 in 2.00 in (1890)
Month to date snowfall 11.0 4.7  
Since 1 July snowfall 19.9 20.3  
Snow Depth 3.00 in    
Sea Level Pressure  
Sea Level Pressure 30.06 in    
Wind  
Wind Speed 6 mph (NNW)    
Max Wind Speed 17 mph    
Max Gust Speed 22 mph    
Visibility 10 miles    
Events      
T = Trace of Precipitation, MM = Missing Value Source: NWS Daily Summary

Daily Weather History Graph

Daily Weather History Graph

Search for Another Location

Airport or City:

Trip Planner

Search our weather history database for the weather conditions in past years. The results will help you decide how hot, cold, wet, or windy it might be!

Date:

Astronomy

Feb. 25, 2013 Rise Set
Actual Time 7:22 AM CST 6:29 PM CST
Civil Twilight 6:54 AM CST 6:57 PM CST
Nautical Twilight 6:22 AM CST 7:29 PM CST
Astronomical Twilight 5:51 AM CST 8:00 PM CST
Moon 6:45 PM CST (2/25) 6:53 AM CST (2/25)
Length of Visible Light 12h 02m
Length of Day
11h 06m
Full, 100% of the Moon is Illuminated
Feb 25
Full
Feb 25
Full
Mar 4
Last Quarter
Mar 11
New
Mar 19
First Quarter

Hourly Weather History & Observations

Time (CST) Temp. Windchill Dew Point Humidity Pressure Visibility Wind Dir Wind Speed Gust Speed Precip Events Conditions
12:01 AM 30.2 °F - 28.4 °F 93% 30.05 in 7.0 mi Calm Calm - 0.00 in   Overcast
12:53 AM 30.0 °F 26.5 °F 28.0 °F 92% 30.12 in 10.0 mi WNW 3.5 mph - 0.00 in   Overcast
1:53 AM 32.0 °F 27.5 °F 28.0 °F 85% 30.11 in 10.0 mi North 4.6 mph - N/A   Overcast
2:53 AM 30.9 °F 24.3 °F 27.0 °F 85% 30.11 in 10.0 mi North 6.9 mph - N/A   Overcast
3:53 AM 30.9 °F 24.3 °F 26.1 °F 82% 30.09 in 10.0 mi NNW 6.9 mph - N/A   Overcast
4:35 AM 30.2 °F 21.3 °F 26.6 °F 86% 30.03 in 10.0 mi NNW 10.4 mph - N/A   Mostly Cloudy
4:53 AM 30.0 °F 20.5 °F 25.0 °F 82% 30.09 in 10.0 mi NNW 11.5 mph - N/A   Mostly Cloudy
5:53 AM 27.0 °F 23.0 °F 23.0 °F 85% 30.12 in 10.0 mi North 3.5 mph - N/A   Scattered Clouds
6:34 AM 24.8 °F 20.5 °F 21.2 °F 86% 30.07 in 10.0 mi South 3.5 mph - N/A   Mostly Cloudy
6:53 AM 26.1 °F 20.5 °F 21.9 °F 84% 30.14 in 10.0 mi NW 4.6 mph - N/A   Overcast
7:53 AM 24.1 °F 14.4 °F 21.0 °F 88% 30.14 in 8.0 mi NW 9.2 mph - N/A   Overcast
8:19 AM 21.2 °F 11.7 °F 19.4 °F 93% 30.06 in 8.0 mi NW 8.1 mph - N/A   Partly Cloudy
8:53 AM 24.1 °F 14.4 °F 19.0 °F 81% 30.15 in 9.0 mi NW 9.2 mph - N/A   Clear
9:53 AM 27.0 °F 17.3 °F 21.0 °F 78% 30.13 in 10.0 mi NW 10.4 mph - N/A   Clear
10:53 AM 30.9 °F 23.5 °F 24.1 °F 76% 30.11 in 10.0 mi North 8.1 mph - N/A   Clear
11:53 AM 33.1 °F 26.1 °F 24.1 °F 70% 30.10 in 10.0 mi North 8.1 mph - N/A   Clear
12:53 PM 35.1 °F 28.6 °F 24.1 °F 64% 30.07 in 10.0 mi North 8.1 mph - N/A   Clear
1:53 PM 36.0 °F 30.3 °F 24.1 °F 62% 30.03 in 10.0 mi North 6.9 mph - N/A   Clear
2:53 PM 37.0 °F 31.6 °F 25.0 °F 62% 30.03 in 10.0 mi NNE 6.9 mph - N/A   Clear
3:53 PM 37.0 °F 31.6 °F 24.1 °F 59% 30.02 in 10.0 mi NE 6.9 mph - N/A   Clear
4:53 PM 37.0 °F 31.6 °F 25.0 °F 62% 30.01 in 10.0 mi North 6.9 mph - N/A   Clear
5:53 PM 35.1 °F 32.2 °F 24.1 °F 64% 30.00 in 10.0 mi North 3.5 mph - N/A   Clear
6:53 PM 28.0 °F 24.2 °F 21.9 °F 78% 30.01 in 10.0 mi North 3.5 mph - N/A   Clear
7:53 PM 24.1 °F - 19.0 °F 81% 30.02 in 10.0 mi Calm Calm - N/A   Clear
8:53 PM 19.9 °F - 16.0 °F 85% 30.02 in 10.0 mi Calm Calm - N/A   Clear
9:53 PM 18.0 °F - 15.1 °F 88% 30.01 in 10.0 mi Calm Calm - N/A   Clear
10:53 PM 14.0 °F - 10.0 °F 84% 30.00 in 10.0 mi Calm Calm - N/A   Clear
11:51 PM 10.4 °F 2.2 °F 8.6 °F 92% 29.88 in 8.0 mi NW 4.6 mph - N/A   Partly Cloudy
11:53 PM 10.9 °F 2.9 °F 9.0 °F 92% 29.99 in 8.0 mi NW 4.6 mph - N/A   Partly Cloudy